Flag for Guadeloupe Weather past 2 weeks in Basse-Terre, Guadeloupe

Now
81 °F

Clear.


Feels Like: 85 °F
Forecast: 79 / 83 °F
Wind: 5 mph from East

Location: Le Raizet - Guadeloupe

Current Time: Oct 22, 2014 at 11:20:50 PM

Latest Report: Oct 22, 2014 at 11:00 PM


Visibility: N/A

Pressure: 29.92 "Hg

Humidity: 79%

Dew point: 73 °F

Location of Basse-TerreLocation

Historic Weather in Basse-Terre — Graph

°F

Basse-Terre temperature yesterday

Maximum temperature yesterday: 88 °F (at 10:00 AM)
Minimum temperature yesterday: 72 °F (at 2:00 AM)
Average temperature yesterday: 80 °F

Past Weeks' High & Low Weather Summary

 TemperatureHumidityPressure
High90 °F (Oct 11, 12:30 PM)100% (Oct 7, 11:30 PM)30.01 "Hg (Oct 7, 11:30 PM)
Low72 °F (Oct 17, 1:00 AM)49% (Oct 15, 2:00 PM)29.74 "Hg (Oct 13, 4:00 AM)
Average80 °F79%29.90 "Hg
* Reported Oct 7 10:00 PM — Oct 22 10:00 PM, Basse-Terre, Weather by CustomWeather, © 2014

Note: Actual official high and low records may vary slightly from our data, if they occured in-between our weather recording intervals... More about our weather records

Advertising

Basse-Terre weather history for previous 24 hours

 ConditionsComfort  
Time TempWeatherWind HumidityBarometerVisibility
10:00 PM
Oct 22
81 °FClear.6 mph79%29.92 "HgN/A
9:30 PM81 °FClear.5 mph79%29.95 "HgN/A
9:00 PM81 °FClear.6 mph79%29.92 "HgN/A
8:30 PM82 °FClear.6 mph74%29.92 "HgN/A
8:00 PM82 °FClear.8 mph74%29.92 "HgN/A
7:30 PM82 °FPassing clouds.7 mph74%29.89 "HgN/A
7:00 PM82 °FPassing clouds.6 mph74%29.89 "HgN/A
6:30 PM82 °FPassing clouds.7 mph74%29.89 "HgN/A
6:00 PM82 °FPassing clouds.6 mph70%29.89 "HgN/A
5:30 PM84 °FPassing clouds.8 mph66%29.89 "HgN/A
5:00 PM84 °FPartly sunny.10 mph66%29.89 "HgN/A
4:30 PM86 °FPartly sunny.12 mph59%29.86 "HgN/A
3:30 PM88 °FPartly sunny.10 mph59%29.86 "HgN/A
3:00 PM88 °FPartly sunny.13 mph59%29.86 "HgN/A
2:30 PM88 °FPartly sunny.9 mph62%29.86 "HgN/A
2:00 PM88 °FPartly sunny.10 mph62%29.89 "HgN/A
1:07 PM88 °FPartly sunny.12 mph62%29.89 "HgN/A
12:30 PM88 °FPartly sunny.9 mph62%29.89 "HgN/A
12:00 PM88 °FPartly sunny.12 mph59%29.92 "HgN/A
11:30 AM88 °FScattered clouds.10 mph62%29.92 "HgN/A
11:00 AM86 °FScattered clouds.9 mph66%29.95 "HgN/A
10:30 AM88 °FScattered clouds.10 mph62%29.95 "HgN/A
10:00 AM88 °FPassing clouds.8 mph59%29.95 "HgN/A
9:35 AM88 °FPassing clouds.6 mph59%29.98 "HgN/A
9:00 AM86 °FPassing clouds.8 mph66%29.98 "HgN/A
8:30 AM86 °FPassing clouds.7 mph66%29.95 "HgN/A
8:00 AM84 °FPassing clouds.3 mph70%29.95 "HgN/A
7:30 AM79 °FPassing clouds.No wind89%29.95 "HgN/A
7:00 AM75 °FClear.1 mph94%29.95 "HgN/A
6:30 AM73 °FClear.No wind94%29.95 "HgN/A
6:00 AM73 °FClear.1 mph94%29.95 "HgN/A
5:30 AM73 °FClear.No wind94%29.92 "HgN/A
5:00 AM73 °FClear.No wind89%29.92 "HgN/A
4:30 AM73 °FClear.No wind94%29.92 "HgN/A
4:00 AM73 °FClear.No wind89%29.89 "HgN/A
3:30 AM73 °FClear.No wind94%29.89 "HgN/A
3:00 AM73 °FPassing clouds.No wind94%29.92 "HgN/A
2:30 AM73 °FClear.No wind94%29.92 "HgN/A
2:00 AM73 °FPassing clouds.No wind94%29.89 "HgN/A
1:30 AM75 °FClear.No wind89%29.92 "HgN/A
1:00 AM75 °FClear.No wind89%29.92 "HgN/A
12:30 AM75 °FClear.No wind89%29.92 "HgN/A
12:00 AM75 °FClear.No wind89%29.95 "HgN/A
11:30 PM
Oct 21
77 °FClear.No wind83%29.95 "HgN/A
11:00 PM77 °FClear.No wind83%29.95 "HgN/A
Weather by CustomWeather, © 2014

See weather overviewHow to use our weather pages